Theta_e
291 288 287 288 288 287 286 285 285 287 290 289 289 289 289 287 286 285 285 285 285 285 287 287 287 288 288 289 290 292 293 294 298 298 299 297 295 294 292 292 293 295 296 298
287 285 290 290 288 287 286 284 284 287 289 289 288 288 287 286 285 286 285 285 285 285 286 286 286 286 286 286 288 290 291 292 294 295 295 294 292 290 289 289 289 289 291 292
286 289 290 290 286 286 284 284 284 286 287 287 285 285 284 284 285 285 286 286 285 285 284 284 284 284 285 284 285 286 287 288 289 292 293 291 290 288 287 286 286 287 288 288
287 291 290 287 286 287 283 288 287 286 285 282 284 280 284 283 283 284 284 284 284 284 284 284 283 283 283 283 284 285 286 286 286 288 287 286 285 283 284 284 285 286 287 286
289 288 288 287 288 289 287 289 287 286 283 281 282 280 283 283 281 282 283 284 284 284 283 282 282 283 283 283 283 284 285 285 285 285 285 284 283 284 284 284 285 285 285 286
290 291 290 291 289 289 288 286 285 282 282 277 283 283 282 281 283 283 284 284 284 284 283 282 283 282 282 282 283 283 283 283 284 284 284 283 283 283 283 283 283 284 284 284
286 287 288 290 286 288 287 285 279 277 276 278 280 279 283 285 285 285 284 284 284 284 283 282 281 281 281 281 282 282 283 282 283 283 283 283 282 283 282 282 282 282 283 283
284 282 287 289 288 286 285 285 280 274 274 276 281 278 284 285 285 285 286 286 284 283 283 282 282 281 281 281 281 281 281 281 282 283 282 283 283 283 282 282 282 282 282 282
282 284 286 287 288 288 284 283 285 278 275 275 280 282 285 284 282 282 283 283 283 283 283 283 282 281 280 280 281 281 281 281 281 281 281 281 282 282 281 281 281 281 281 282
287 282 285 285 287 286 286 287 281 280 272 270 277 278 280 282 282 281 281 283 283 283 283 283 282 281 280 280 280 281 281 281 281 281 281 281 281 281 281 281 280 280 280 280
288 286 283 284 283 283 284 283 282 283 278 272 270 276 283 284 284 281 282 284 284 283 283 283 283 282 281 280 280 280 280 280 281 281 281 281 280 280 280 280 280 279 280 279
290 286 278 281 283 284 284 284 283 281 276 276 276 278 284 284 284 284 283 284 284 284 284 283 283 282 281 280 279 279 280 280 281 281 281 281 281 280 280 279 279 279 279 278
290 284 275 279 282 282 282 283 283 282 281 275 275 277 284 283 283 283 283 283 283 283 283 282 281 281 281 280 280 279 279 280 280 280 280 280 280 279 279 279 279 279 277 277
295 285 285 284 283 284 281 282 282 284 276 278 281 278 282 284 284 283 283 284 283 284 283 282 281 281 280 280 279 279 279 280 280 280 279 279 279 279 279 278 278 276 276 275
291 287 282 279 280 281 282 282 282 282 285 281 283 282 283 286 286 286 284 283 282 283 282 282 281 281 280 279 279 279 279 279 279 279 279 279 280 279 278 277 275 274 274 273
287 284 283 280 281 281 279 281 283 284 283 284 281 281 286 288 285 283 284 283 283 283 282 283 282 281 280 281 280 279 278 278 278 278 278 279 278 277 277 275 273 273 272 272
285 281 281 279 278 279 279 280 281 281 281 284 280 285 281 282 283 284 283 283 284 282 283 282 282 281 281 280 281 279 279 278 278 278 278 277 276 275 274 272 271 270 270 270
283 283 283 271 276 273 278 274 280 282 283 280 277 277 283 283 281 281 281 282 281 282 282 282 281 279 280 279 279 279 278 278 277 276 275 274 273 271 271 270 269 269 268 268
284 283 275 273 274 277 275 274 278 280 279 281 282 280 280 278 278 277 279 280 281 280 281 281 281 279 278 278 278 277 277 277 276 275 274 272 271 268 269 267 267 267 266 266
281 282 283 273 273 272 274 274 276 279 273 276 284 280 276 276 272 275 278 279 279 279 279 279 279 278 278 278 277 276 275 274 274 274 273 271 268 265 264 266 265 265 264 265
275 276 278 275 274 277 278 276 277 273 276 274 276 276 275 274 277 278 278 277 278 279 278 279 278 278 278 275 275 275 273 273 274 271 270 268 267 264 264 263 264 262 262 263
275 275 274 275 273 272 275 275 276 279 277 276 275 276 276 277 277 277 278 278 277 277 277 279 276 276 275 275 274 274 272 271 269 268 267 265 262 264 263 260 262 260 260 259
274 278 276 277 278 277 278 279 280 280 278 276 277 277 278 277 277 277 277 277 277 277 277 275 276 275 272 273 273 272 271 269 267 264 262 260 261 262 262 259 262 262 261 260
273 274 273 274 274 275 277 279 279 280 279 279 278 278 277 276 277 277 276 276 277 275 275 273 272 272 274 270 271 269 268 267 262 260 261 261 260 261 262 263 262 260 260 260
275 275 272 272 274 276 277 278 279 279 279 278 278 278 278 277 276 276 275 275 275 276 273 272 273 273 273 268 266 265 265 263 261 260 261 261 261 261 262 262 262 262 262 261
274 273 272 271 277 277 278 280 280 278 278 278 277 276 276 277 277 276 275 275 274 274 270 270 270 268 266 265 263 261 261 261 261 261 261 261 261 261 262 260 260 264 267 269
Wind_Speed
1 4 10 13 9 3 6 4 4 2 3 1 6 6 2 4 6 6 4 4 6 6 4 7 7 8 8 11 13 13 12 12 7 6 6 7 9 9 10 10 14 14 11 11
3 8 9 5 5 4 4 4 6 4 2 5 3 8 1 2 2 3 6 5 5 4 6 8 11 11 12 11 10 10 12 12 10 5 5 6 7 9 9 9 12 14 14 13
9 5 9 8 5 6 5 7 5 7 0 2 2 6 4 2 3 4 2 2 3 4 6 5 8 9 8 11 11 11 11 12 10 7 8 7 6 6 8 9 10 12 13 13
7 3 6 5 6 8 6 9 7 5 4 5 1 6 4 5 5 4 5 5 4 3 3 3 4 5 7 8 8 9 11 12 11 9 11 14 10 10 6 8 8 9 12 14
7 8 6 5 7 7 7 7 7 3 4 1 2 1 6 4 7 8 9 8 6 5 4 4 4 5 6 6 6 6 10 12 11 11 12 11 13 8 7 7 10 10 10 12
3 1 7 8 2 5 10 8 7 5 3 2 7 7 4 6 6 8 7 7 8 7 5 4 3 4 5 5 6 6 11 11 9 10 11 12 12 9 8 8 7 7 7 7
1 4 4 5 7 3 1 7 2 2 1 7 0 3 8 5 6 11 17 14 10 7 6 5 4 4 4 6 5 5 8 9 8 11 11 11 11 11 11 8 7 7 6 7
9 6 11 7 8 10 7 7 7 9 5 3 0 7 7 3 1 2 9 13 11 10 8 7 6 5 5 5 5 5 7 9 7 9 9 8 9 7 7 7 6 6 6 6
8 7 1 2 5 6 7 6 3 8 3 2 5 5 3 2 2 3 10 13 13 11 10 10 7 7 6 6 6 7 7 7 7 7 7 8 7 8 8 8 7 5 5 5
8 3 1 2 3 3 5 8 4 2 3 6 4 4 6 6 8 6 10 16 14 11 10 8 9 8 6 6 6 7 6 7 6 7 5 7 7 7 6 6 7 6 5 6
7 5 2 4 7 11 4 4 4 5 5 7 2 6 6 7 10 15 14 15 14 13 12 12 10 8 8 6 6 6 6 8 7 6 6 6 6 6 6 6 6 5 5 5
11 6 5 8 2 1 2 8 8 7 6 3 3 7 2 5 7 12 14 14 11 11 12 11 10 9 9 9 7 9 7 8 7 7 6 6 6 5 5 5 5 4 5 5
13 6 4 5 3 2 7 6 4 5 4 10 7 6 3 3 6 8 9 8 9 10 9 9 8 11 11 9 8 8 8 8 7 6 6 5 5 5 5 5 4 4 4 4
17 5 12 16 6 9 9 9 7 9 6 7 14 4 6 6 8 8 9 9 10 11 12 10 9 10 9 9 9 9 8 7 7 7 6 6 5 5 4 4 3 3 3 4
7 11 5 2 1 4 6 10 14 16 16 10 8 13 10 12 13 13 11 7 9 12 9 9 10 10 9 9 9 8 7 7 7 7 7 7 6 5 5 4 3 1 3 3
3 4 4 5 1 2 2 7 12 12 6 12 4 8 7 7 7 7 9 10 11 11 8 9 8 8 11 12 11 10 9 8 7 8 8 7 6 6 5 3 1 3 4 4
5 6 4 4 3 5 6 11 12 6 6 12 13 12 7 6 8 10 9 10 12 9 9 8 9 9 10 12 11 11 10 7 8 7 6 6 6 6 4 3 2 2 3 3
6 6 2 4 2 8 2 2 5 12 8 5 3 5 11 7 3 3 5 8 7 7 7 7 6 7 7 6 7 6 7 7 7 6 6 6 6 5 4 3 2 2 2 3
1 5 4 6 5 6 2 5 8 9 9 10 9 5 4 5 4 2 4 5 6 7 7 6 5 5 6 7 7 7 6 6 6 8 8 7 6 5 4 3 3 2 2 3
1 2 6 4 5 10 6 2 1 5 6 9 14 7 8 6 3 5 7 5 6 6 4 6 5 5 6 7 7 7 6 6 9 9 8 7 6 6 5 4 4 3 2 3
3 1 10 6 5 5 5 5 3 6 6 3 6 7 8 6 5 6 7 5 5 5 7 5 6 8 8 5 7 7 6 11 6 8 8 7 6 5 4 4 2 3 2 3
7 8 4 2 2 8 7 5 9 5 3 5 5 7 9 5 8 6 7 6 7 8 7 8 7 8 5 6 7 7 9 5 7 8 7 6 5 4 5 4 3 2 2 3
4 6 6 8 6 1 12 3 4 4 7 7 6 7 9 9 8 7 6 8 8 9 8 5 8 7 4 6 7 7 5 8 8 7 6 5 5 5 5 4 3 2 2 3
4 3 2 3 1 3 9 2 2 5 6 6 4 6 8 6 6 6 5 6 7 6 7 5 5 6 8 6 5 4 8 9 8 7 6 5 5 4 4 3 3 3 3 3
3 10 7 1 1 0 6 9 6 6 3 4 4 7 9 8 5 7 5 7 7 7 4 4 7 7 8 6 6 6 8 9 7 6 5 5 4 4 4 4 4 4 4 5
5 8 6 5 9 6 6 10 9 7 8 9 8 5 6 8 9 7 7 7 6 7 4 4 5 5 4 5 6 6 6 7 7 6 5 5 4 4 4 3 4 8 10 12
Wind_Direction
66 130 209 196 197 134 136 170 214 232 248 185 233 252 35 76 77 102 100 96 85 64 8 22 25 21 27 34 34 31 42 24 37 58 74 68 68 59 54 46 43 45 42 44
75 227 216 128 155 163 151 162 233 274 226 175 259 255 110 72 124 162 154 131 104 87 43 25 18 22 26 29 35 47 52 50 46 41 71 79 85 64 57 48 44 41 44 46
176 208 147 140 149 170 202 190 199 213 30 211 305 274 205 66 104 115 123 122 114 118 100 53 38 28 26 36 21 36 46 52 45 65 99 93 82 72 58 47 50 37 41 41
234 223 151 158 189 167 205 200 176 163 120 232 101 274 252 176 166 189 182 171 174 154 102 77 64 59 45 37 26 51 58 61 55 62 77 82 91 93 74 69 57 49 42 46
234 168 171 180 204 163 227 131 149 132 140 78 243 260 260 132 217 197 201 190 195 188 152 132 108 77 54 48 43 47 71 69 68 74 82 90 94 93 91 76 72 55 49 45
230 170 161 193 109 166 151 83 55 58 87 263 219 188 254 199 208 179 188 192 191 183 174 171 126 106 93 75 66 58 77 68 68 78 82 93 101 101 93 79 71 60 52 47
197 217 182 134 90 50 171 110 89 8 317 231 327 164 247 191 178 179 181 189 187 176 175 184 171 150 128 109 94 89 93 88 88 90 89 95 97 95 91 86 82 73 56 45
179 255 170 186 176 176 189 169 163 194 200 226 35 224 255 131 128 263 176 172 172 180 183 188 188 178 159 144 125 114 110 105 92 95 94 91 96 98 91 89 87 76 75 62
175 251 81 106 144 148 188 199 155 102 52 49 216 289 255 148 142 150 167 167 186 183 185 192 189 184 167 158 159 147 133 121 108 113 117 105 104 104 106 96 88 82 71 66
209 140 245 165 107 39 169 158 92 10 172 246 244 253 236 211 203 180 181 188 192 184 181 187 192 190 180 176 163 164 154 133 141 141 131 118 113 105 105 103 94 87 81 64
153 138 211 130 209 175 155 172 62 122 143 178 250 252 215 214 179 188 197 190 189 191 189 192 192 190 182 174 173 167 157 153 161 151 138 131 132 129 120 109 104 97 87 67
186 140 167 209 282 294 179 185 167 166 207 244 162 253 104 263 206 176 188 193 195 194 193 191 187 180 184 186 180 179 174 172 174 169 157 149 145 143 121 108 103 95 76 52
178 199 97 359 339 307 212 195 157 113 92 190 152 247 147 183 160 187 180 187 190 191 188 188 179 194 194 189 184 188 187 191 174 167 163 163 162 151 135 114 105 95 71 59
174 165 198 219 188 144 190 186 179 174 182 164 228 198 224 198 183 189 199 198 190 192 198 193 196 202 194 190 189 193 197 190 174 176 176 178 174 152 140 127 112 79 70 56
166 217 147 80 69 129 178 178 181 200 206 192 209 225 192 193 196 199 198 170 179 201 193 196 207 203 190 192 194 189 200 186 180 182 187 191 167 156 149 152 151 103 62 40
16 200 138 176 61 91 287 220 196 207 215 243 126 253 194 193 104 150 187 173 193 201 188 206 206 188 194 198 197 194 198 196 181 191 199 180 166 161 163 154 85 32 13 4
149 138 149 187 145 123 256 210 184 176 184 185 207 229 166 188 187 192 193 185 200 189 193 202 203 201 196 195 186 195 198 174 191 199 188 177 162 159 161 128 84 350 331 325
156 147 149 130 152 222 242 30 201 202 200 189 83 191 180 185 132 141 165 185 196 192 197 206 201 199 195 181 181 175 170 188 186 188 180 164 158 154 150 144 201 234 265 303
354 135 138 157 210 332 143 200 150 170 244 198 208 171 156 92 80 305 187 183 184 183 202 211 197 187 167 183 182 178 180 179 170 191 186 170 153 149 164 198 211 223 244 293
135 63 191 148 189 206 248 284 188 120 274 209 194 169 141 128 138 236 180 182 214 215 203 199 179 161 171 195 163 158 183 176 203 189 171 147 148 155 177 201 217 206 246 282
125 77 210 175 211 271 216 170 151 129 250 146 148 138 147 179 193 173 151 197 194 192 193 167 174 182 201 156 151 188 173 209 184 140 138 142 146 159 175 186 209 228 265 294
159 160 189 113 169 257 156 56 163 181 34 144 162 175 181 166 161 165 173 179 179 191 182 189 183 209 199 170 167 192 203 149 136 138 138 141 152 182 168 192 221 234 260 279
202 186 181 194 206 150 192 127 195 160 147 185 173 188 182 174 191 174 196 203 206 200 200 182 195 215 203 189 183 196 187 144 138 134 145 163 171 185 178 195 240 267 251 283
227 154 163 94 193 236 205 209 221 192 173 168 179 156 161 181 187 204 210 224 214 209 210 179 170 216 245 190 188 189 147 139 139 155 169 172 185 193 201 219 219 229 260 272
181 134 145 304 218 132 254 232 209 215 127 132 137 173 201 196 209 203 216 224 223 216 198 174 198 216 236 158 167 157 148 143 155 163 169 185 188 202 223 229 229 237 229 215
193 155 163 198 197 171 209 211 196 196 203 197 196 206 214 195 214 199 228 223 211 214 188 201 212 205 190 166 161 158 147 154 156 171 183 196 196 204 216 225 263 267 273 280